Regional Weather Roundup
Issued by NWS Boston, MA

Home | Current Version | Previous Version | Text Only | Print | Product List | Glossary On
Versions: 1 2 3 4 5 6 7 8 9 10 11 12 13 14 15 16 17 18 19 20 21 22 23 24 25 26 27
000
ASUS41 KBOX 260610
RWRBOX

REGIONAL WEATHER ROUNDUP
NATIONAL WEATHER SERVICE TAUNTON MA
200 AM EDT THU MAY 26 2016

NOTE:  "FAIR" INDICATES FEW OR NO CLOUDS BELOW 12,000 FEET WITH NO
SIGNIFICANT WEATHER AND/OR OBSTRUCTIONS TO VISIBILITY.  THE FOLLOWING
OBSERVATION LOCATIONS DO NOT REPORT PRESENT WEATHER...PROVINCETOWN...
SMITHFIELD...BLOCK ISLAND...KEENE...AND OXFORD.

MAZALL-260700-
EASTERN MASSACHUSETTS

CITY           SKY/WX    TMP DP  RH WIND       PRES   REMARKS
BOSTON         PTCLDY    72  53  51 W8        30.00S
6HR MIN TEMP:  72; 6HR MAX TEMP:  84;

BEVERLY        CLEAR     63  53  70 NW5       30.00R
LAWRENCE       CLEAR     64  54  69 CALM      30.02S
BEDFORD        CLEAR     62  54  74 CALM      30.00S
BLUE HILL        N/A     68  52  56 NW14      30.01S
NORWOOD        CLEAR     58  53  84 CALM      30.00S
MARSHFIELD     CLEAR     73  54  49 NW9G17    29.99R
PLYMOUTH       CLEAR     60  55  83 SW6       30.01R
TAUNTON        CLEAR     61  54  77 CALM      30.00R
NEW BEDFORD    CLEAR     66  51  58 W7        30.01R
$$

MAZALL-260700-
CAPE COD AND THE ISLANDS

CITY           SKY/WX    TMP DP  RH WIND       PRES   REMARKS
FALMOUTH       PTCLDY    61  52  72 W6        30.01R
HYANNIS        CLEAR     66  52  60 W8        29.99R
CHATHAM        CLEAR     59  55  87 CALM      30.00F
PROVINCETOWN   CLEAR     64  54  69 N6        30.00R
NANTUCKET      CLEAR     60  51  72 W14       30.01S
MARTHAS VNYRD  CLEAR     69  48  47 W6        30.02R
$$

MAZALL-260700-
CENTRAL AND WESTERN MASSACHUSETTS

CITY           SKY/WX    TMP DP  RH WIND       PRES   REMARKS
WORCESTER      CLEAR     65  51  60 W9        30.05S
6HR MIN TEMP:  63; 6HR MAX TEMP:  74;

FITCHBURG      CLEAR     63  54  72 NW3       30.03S
ORANGE         CLEAR     56  55  97 CALM      30.05R
SPRINGFIELD    CLEAR     59  56  89 CALM      30.02S
WESTFIELD      CLEAR     58  55  90 CALM      30.03S
NORTH ADAMS    CLEAR     56  53  90 CALM      30.06S
PITTSFIELD     CLEAR     59  54  83 W9        30.07S
$$

RIZALL-260700-
RHODE ISLAND

CITY           SKY/WX    TMP DP  RH WIND       PRES   REMARKS
PROVIDENCE     CLEAR     68  50  52 W8        30.03R
6HR MIN TEMP:  68; 6HR MAX TEMP:  81;

NEWPORT        CLEAR     66  51  58 CALM      30.02S
BLOCK ISLAND   CLEAR     64  51  62 W9        30.05R
SMITHFIELD     CLEAR    N/A N/A N/A W8        30.02S
WESTERLY       PTCLDY    60  51  72 CALM      30.05S
$$

CTZALL-260700-
CONNECTICUT

CITY           SKY/WX    TMP DP  RH WIND       PRES   REMARKS
BRADLEY INTL   PTCLDY    65  54  67 W5        30.03R
6HR MIN TEMP:  62; 6HR MAX TEMP:  80;

HARTFORD       CLEAR     65  56  72 CALM      30.04R
BRIDGEPORT     CLEAR     63  56  78 CALM      30.04S
DANBURY        CLOUDY    58  54  86 SW5       30.08R
GROTON         CLEAR     60  55  83 CALM      30.04R
NEW HAVEN      MOCLDY    63  55  75 CALM      30.05R
CHESTER        FAIR      70  50  49 SW3       30.06R
MERIDEN        PTCLDY    63  55  75 SE5       30.05S
WILLIMANTIC    CLEAR     63  55  75 CALM      30.04S
OXFORD           N/A     63  50  63 CALM      30.08S
$$

MEZ002-015-021-024-NHZ003-005-008-011-012-014-VTZ005-008-260700-
NORTHERN NEW ENGLAND

CITY           SKY/WX    TMP DP  RH WIND       PRES   REMARKS
PORTLAND ME    CLEAR     57  55  93 NW3       29.98R
6HR MIN TEMP:  55; 6HR MAX TEMP:  60; 6HR PCP: TRACE;

BANGOR ME      CLEAR     60  53  77 W6        29.96R
CONCORD NH     CLEAR     58  55  90 CALM      30.02R
MANCHESTER NH  CLEAR     64  55  72 SE3       30.01R
NASHUA NH      CLEAR     64  56  75 CALM      30.02S
PORTSMOUTH NH  CLEAR     59  55  85 SW7       29.99S
JAFFREY NH     CLEAR     56  53  90 CALM      30.06S
KEENE NH         N/A    N/A N/A N/A MISG        N/A
BURLINGTON VT  FAIR      63  51  65 NW7       30.06S
MT. WASHINGTON FOG       45  45 100 W60G67      N/A  VSB 0   WCI  31
$$

NYZ052-076-260700-
EASTERN NEW YORK

CITY           SKY/WX    TMP DP  RH WIND       PRES   REMARKS
ALBANY         PTCLDY    61  53  75 CALM      30.05S
6HR MIN TEMP:  60; 6HR MAX TEMP:  79;

NEW YORK CITY  CLOUDY    79  54  41 W10       30.05S
6HR MIN TEMP:  79; 6HR MAX TEMP:  86;

$$

ANZALL-260700-
MARINE OBSERVATIONS

STATION/POSITION TIME  TEMP    WIND        PRES    VSBY  WAVE
                       AIR SEA DIR/SP/G                  HT/PER
                 (UTC) (F)     (DEG/KT/KT) (MB)    (MI)  (FT/S)
BOSTON BUOY      0550   62 56   30/  2/  4 1015.7R         2/11
BUZZARDS BAY     0500   69     260/ 20/ 20 1016.5F
NANTUCKET SOUND  0550   60 56  250/ 10/ 10 1015.6F         1/ 8
MASS BAY-STELLWA 0504   56 54                N/A    1 7/8  2/ 8
ISLE OF SHOALS   0600   65     250/  6/  6 1015.4S
S OF BLOCK IS    0525      53                N/A           3/ 8
$$

......................KEY.........................
  SKY/WX - SKY CONDITION/PRESENT WEATHER
  TMP    - TEMPERATURE IN FAHRENHEIT
  DWPT   - DEWPOINT IN FAHRENHEIT
  RH     - RELATIVE HUMIDITY IN PERCENT
  WIND   - DIRECTION AND SPEED IN MPH
  PRES   - MEAN SEA LEVEL PRESSURE IN INCHES OF HG
  WCI    - WIND CHILL INDEX
  VSB    - VISIBILITY IN MILES
  HX     - HEAT INDEX
  TC     - TEMPERATURE IN CELSIUS
  VRB    - VARIABLE WIND DIRECTION
  N/A    - NOT AVAILABLE




USA.gov is the U.S. government's official web portal to all federal, state and local government web resources and services.